Tracking 19638 objects as of 19-Apr-2019
HD Live streaming from Space Station
objects crossing your sky now

COSMOS 1823 DEB

Track COSMOS 1823 DEB now!
10-day predictions


NORAD ID: 39820
Int'l Code: 1987-020EU
Perigee: 1,476.7 km
Apogee: 1,508.0 km
Inclination: 73.6 °
Period: 115.7 minutes
Semi major axis: 7863 km
RCS: 0.0229 m2 (small)
Launch date: February 20, 1987
Source: Commonwealth of Independent States (former USSR) (CIS)
Launch site: PLESETSK MISSILE AND SPACE COMPLEX (PKMTR)

Note: This is SATELLITE DEBRIS
aabbcc
Your satellite tracking list
Your tracking list is empty




NASA's NSSDC Master Catalog

Two Line Element Set (TLE):
1 39820U 87020EU  19101.86434209  .00000059  00000-0  53920-3 0  9993
2 39820  73.6305 276.5942 0019938 277.0077 151.0664 12.45059946682412
Source of the keplerian elements: AFSPC